Tracking 23611 objects as of 18-Sep-2021
HD Live streaming from Space Station
objects crossing your sky now
Track INSPIRATION-4

STARLINK-1234

Track STARLINK-1234 now!
10-day predictions
STARLINK-1234 is classified as:


NORAD ID: 45190
Int'l Code: 2020-012N
Perigee: 552.8 km
Apogee: 555.9 km
Inclination: 53.1 °
Period: 95.6 minutes
Semi major axis: 6925 km
RCS: Unknown
Launch date: February 17, 2020
Source: United States (US)
Launch site: AIR FORCE EASTERN TEST RANGE (AFETR)
aabbcc
Your satellite tracking list
Your tracking list is empty




NASA's NSSDC Master Catalog

Two Line Element Set (TLE):
1 45190U 20012N   21260.94737685  .00000913  00000-0  80184-4 0  9992
2 45190  53.0542 140.7792 0002226  75.6787 284.4449 15.06395262 89058
Source of the keplerian elements: AFSPC